DEMSF EDDH-EDXW

Flight info

Callsign DEMSF
Flight time 0h 49m
Altitude
Route
Aircraft BE36

Departure

Time 2026-04-22 15:23
Airport Hamburg Helmut Schmidt Airport (EDDH)

Arrival

Time 2026-04-22 16:12
Airport Westerland Sylt Airport (EDXW)
Time Latitude Longitude Altitude Speed Heading
2026-04-22 15:07 53.62717 9.98793 41 ft 0 kts 63°
2026-04-22 15:19 53.62717 9.98796 41 ft 2 kts 63°
2026-04-22 15:19 53.62745 9.98837 41 ft 9 kts 336°
2026-04-22 15:19 53.62806 9.98796 41 ft 10 kts 26°
2026-04-22 15:19 53.62870 9.98917 41 ft 17 kts 50°
2026-04-22 15:20 53.62926 9.99030 41 ft 20 kts 50°
2026-04-22 15:20 53.63039 9.99251 41 ft 18 kts 35°
2026-04-22 15:20 53.63142 9.99318 41 ft 9 kts 14°
2026-04-22 15:20 53.63146 9.99320 41 ft 0 kts 17°
2026-04-22 15:22 53.63174 9.99331 41 ft 10 kts 11°
2026-04-22 15:22 53.63279 9.99353 41 ft 20 kts 353°
2026-04-22 15:22 53.63510 9.99190 42 ft 66 kts 333°
2026-04-22 15:23 53.63997 9.98809 228 ft 84 kts 330°
2026-04-22 15:23 53.64551 9.98431 666 ft 85 kts 334°
2026-04-22 15:23 53.65073 9.98089 1108 ft 86 kts 335°
2026-04-22 15:23 53.65647 9.97594 1464 ft 93 kts 329°
2026-04-22 15:24 53.66089 9.96888 1885 ft 91 kts 294°
2026-04-22 15:24 53.66118 9.95737 2152 ft 106 kts 271°
2026-04-22 15:24 53.66079 9.94495 2568 ft 99 kts 275°
2026-04-22 15:24 53.66083 9.93368 2709 ft 97 kts 276°
2026-04-22 15:25 53.66068 9.92139 2586 ft 109 kts 272°
2026-04-22 15:25 53.66160 9.90811 2437 ft 120 kts 287°
2026-04-22 15:25 53.66320 9.89474 2485 ft 113 kts 284°
2026-04-22 15:25 53.66426 9.88146 2417 ft 114 kts 281°
2026-04-22 15:26 53.66446 9.86852 2392 ft 109 kts 267°
2026-04-22 15:26 53.66309 9.85544 2306 ft 113 kts 273°
2026-04-22 15:26 53.66307 9.84269 2272 ft 112 kts 276°
2026-04-22 15:26 53.66343 9.82918 2237 ft 115 kts 278°
2026-04-22 15:27 53.66349 9.81592 2349 ft 111 kts 276°
2026-04-22 15:27 53.66408 9.80219 2229 ft 119 kts 279°
2026-04-22 15:27 53.66490 9.78873 2322 ft 113 kts 280°
2026-04-22 15:27 53.66601 9.77551 2306 ft 115 kts 283°
2026-04-22 15:28 53.66717 9.76270 2372 ft 110 kts 283°
2026-04-22 15:28 53.66826 9.74993 2379 ft 113 kts 281°
2026-04-22 15:28 53.66932 9.73651 2378 ft 118 kts 285°
2026-04-22 15:28 53.67070 9.72289 2371 ft 118 kts 285°
2026-04-22 15:29 53.67227 9.70924 2344 ft 119 kts 286°
2026-04-22 15:29 53.67383 9.69554 2380 ft 118 kts 284°
2026-04-22 15:29 53.67523 9.68172 2421 ft 122 kts 282°
2026-04-22 15:30 53.67781 9.65887 2618 ft 117 kts 285°
2026-04-22 15:30 53.67946 9.64494 2591 ft 121 kts 285°
2026-04-22 15:30 53.68115 9.63133 2757 ft 123 kts 285°
2026-04-22 15:30 53.68314 9.61634 2688 ft 134 kts 287°
2026-04-22 15:31 53.68521 9.60075 2689 ft 142 kts 284°
2026-04-22 15:31 53.68715 9.58438 2721 ft 141 kts 283°
2026-04-22 15:31 53.68891 9.56792 2657 ft 144 kts 283°
2026-04-22 15:31 53.69098 9.55164 2625 ft 135 kts 288°
2026-04-22 15:32 53.69341 9.53688 2519 ft 131 kts 290°
2026-04-22 15:32 53.69700 9.52273 2409 ft 132 kts 301°
2026-04-22 15:32 53.70167 9.50925 2422 ft 136 kts 302°
2026-04-22 15:32 53.70662 9.49571 2564 ft 131 kts 304°
2026-04-22 15:33 53.71203 9.48369 2658 ft 129 kts 312°
2026-04-22 15:33 53.71812 9.47278 2779 ft 127 kts 315°
2026-04-22 15:33 53.72434 9.46194 2831 ft 130 kts 315°
2026-04-22 15:33 53.73064 9.45092 3027 ft 129 kts 315°
2026-04-22 15:34 53.73669 9.43997 3206 ft 127 kts 314°
2026-04-22 15:34 53.74257 9.42867 3360 ft 129 kts 313°
2026-04-22 15:34 53.74836 9.41699 3476 ft 132 kts 312°
2026-04-22 15:34 53.75440 9.40467 3483 ft 140 kts 311°
2026-04-22 15:35 53.76042 9.39160 3600 ft 139 kts 309°
2026-04-22 15:35 53.76594 9.37859 3781 ft 135 kts 307°
2026-04-22 15:35 53.77113 9.36595 3928 ft 134 kts 308°
2026-04-22 15:35 53.77627 9.35328 4148 ft 129 kts 308°
2026-04-22 15:36 53.78133 9.34068 4270 ft 130 kts 307°
2026-04-22 15:36 53.78580 9.32738 4436 ft 130 kts 300°
2026-04-22 15:36 53.78970 9.31362 4556 ft 134 kts 300°
2026-04-22 15:36 53.79360 9.29939 4737 ft 134 kts 299°
2026-04-22 15:37 53.79753 9.28493 4947 ft 133 kts 300°
2026-04-22 15:37 53.80145 9.27044 5057 ft 137 kts 300°
2026-04-22 15:37 53.80520 9.25603 5279 ft 132 kts 299°
2026-04-22 15:37 53.80873 9.24177 5428 ft 133 kts 297°
2026-04-22 15:38 53.81214 9.22714 5558 ft 135 kts 298°
2026-04-22 15:38 53.81952 9.19764 5827 ft 135 kts 298°
2026-04-22 15:38 53.82314 9.18277 5957 ft 135 kts 297°
2026-04-22 15:39 53.82672 9.16817 6121 ft 134 kts 298°
2026-04-22 15:39 53.83028 9.15393 6333 ft 129 kts 298°
2026-04-22 15:39 53.83354 9.13987 6492 ft 129 kts 297°
2026-04-22 15:39 53.83714 9.12511 6477 ft 140 kts 297°
2026-04-22 15:40 53.84123 9.10980 6533 ft 145 kts 300°
2026-04-22 15:40 53.84505 9.09313 6501 ft 156 kts 287°
2026-04-22 15:40 53.84629 9.07513 6621 ft 154 kts 282°
2026-04-22 15:40 53.84776 9.05721 6616 ft 154 kts 284°
2026-04-22 15:41 53.84947 9.03940 6625 ft 153 kts 285°
2026-04-22 15:41 53.85145 9.02137 6547 ft 157 kts 286°
2026-04-22 15:41 53.85410 9.00395 6591 ft 151 kts 295°
2026-04-22 15:41 53.85915 8.98835 6561 ft 149 kts 309°
2026-04-22 15:42 53.86496 8.97440 6641 ft 144 kts 309°
2026-04-22 15:42 53.87081 8.96039 6634 ft 146 kts 310°
2026-04-22 15:42 53.87675 8.94646 6659 ft 145 kts 310°
2026-04-22 15:42 53.88274 8.93274 6686 ft 144 kts 311°
2026-04-22 15:43 53.88946 8.92004 6665 ft 145 kts 321°
2026-04-22 15:43 53.89742 8.90971 6655 ft 144 kts 328°
2026-04-22 15:43 53.90597 8.90083 6633 ft 144 kts 333°
2026-04-22 15:43 53.91489 8.89226 6543 ft 150 kts 333°
2026-04-22 15:44 53.92391 8.88365 6536 ft 148 kts 333°
2026-04-22 15:44 53.93272 8.87534 6548 ft 145 kts 333°
2026-04-22 15:44 53.94152 8.86702 6551 ft 144 kts 333°
2026-04-22 15:44 53.95026 8.85872 6553 ft 144 kts 333°
2026-04-22 15:45 53.95896 8.85046 6554 ft 143 kts 333°
2026-04-22 15:45 53.96775 8.84209 6548 ft 146 kts 333°
2026-04-22 15:45 53.97668 8.83360 6553 ft 148 kts 334°
2026-04-22 15:45 53.98626 8.82737 6561 ft 148 kts 343°
2026-04-22 15:46 53.99610 8.82207 6553 ft 148 kts 343°
2026-04-22 15:46 54.00594 8.81676 6556 ft 148 kts 343°
2026-04-22 15:46 54.01578 8.81145 6555 ft 148 kts 343°
2026-04-22 15:46 54.02562 8.80616 6557 ft 148 kts 343°
2026-04-22 15:47 54.03549 8.80085 6554 ft 149 kts 343°
2026-04-22 15:47 54.04516 8.79559 6667 ft 143 kts 343°
2026-04-22 15:47 54.05433 8.79060 6786 ft 138 kts 343°
2026-04-22 15:47 54.06347 8.78558 6897 ft 135 kts 343°
2026-04-22 15:48 54.07239 8.78069 6914 ft 139 kts 343°
2026-04-22 15:48 54.08190 8.77549 6916 ft 144 kts 343°
2026-04-22 15:48 54.09142 8.77030 6915 ft 147 kts 343°
2026-04-22 15:48 54.10129 8.76497 6922 ft 150 kts 344°
2026-04-22 15:49 54.11128 8.75950 6920 ft 152 kts 343°
2026-04-22 15:49 54.12142 8.75396 6925 ft 153 kts 343°
2026-04-22 15:49 54.13159 8.74841 6919 ft 154 kts 343°
2026-04-22 15:49 54.14172 8.74294 6923 ft 155 kts 343°
2026-04-22 15:50 54.15175 8.73751 6926 ft 155 kts 343°
2026-04-22 15:50 54.16203 8.73194 6926 ft 155 kts 343°
2026-04-22 15:50 54.17232 8.72636 6929 ft 155 kts 343°
2026-04-22 15:50 54.18259 8.72073 6929 ft 155 kts 343°
2026-04-22 15:51 54.19288 8.71513 6923 ft 155 kts 343°
2026-04-22 15:51 54.20321 8.70961 6921 ft 156 kts 343°
2026-04-22 15:51 54.21355 8.70398 6923 ft 155 kts 343°
2026-04-22 15:51 54.22383 8.69832 6922 ft 155 kts 343°
2026-04-22 15:52 54.23409 8.69269 6925 ft 155 kts 343°
2026-04-22 15:52 54.24440 8.68709 6920 ft 155 kts 343°
2026-04-22 15:52 54.25471 8.68145 6915 ft 155 kts 343°
2026-04-22 15:52 54.26498 8.67581 6921 ft 155 kts 343°
2026-04-22 15:53 54.27530 8.67010 6916 ft 155 kts 343°
2026-04-22 15:53 54.28561 8.66447 6922 ft 157 kts 343°
2026-04-22 15:53 54.29601 8.65885 6920 ft 157 kts 344°
2026-04-22 15:53 54.30631 8.65320 6920 ft 158 kts 343°
2026-04-22 15:54 54.31692 8.64732 6916 ft 157 kts 343°
2026-04-22 15:54 54.32719 8.64168 6919 ft 157 kts 343°
2026-04-22 15:54 54.33762 8.63598 6927 ft 158 kts 343°
2026-04-22 15:54 54.34821 8.63018 6921 ft 157 kts 343°
2026-04-22 15:55 54.35844 8.62452 6920 ft 157 kts 343°
2026-04-22 15:55 54.36879 8.61872 6916 ft 156 kts 344°
2026-04-22 15:55 54.37910 8.61296 6918 ft 155 kts 343°
2026-04-22 15:55 54.38937 8.60727 6918 ft 155 kts 343°
2026-04-22 15:56 54.39965 8.60156 6921 ft 155 kts 344°
2026-04-22 15:56 54.40990 8.59581 6920 ft 155 kts 343°
2026-04-22 15:56 54.42017 8.59007 6924 ft 155 kts 344°
2026-04-22 15:56 54.43045 8.58430 6920 ft 155 kts 343°
2026-04-22 15:57 54.44081 8.57852 6861 ft 157 kts 343°
2026-04-22 15:57 54.45121 8.57274 6734 ft 157 kts 343°
2026-04-22 15:57 54.46165 8.56702 6603 ft 157 kts 343°
2026-04-22 15:57 54.47207 8.56118 6478 ft 158 kts 340°
2026-04-22 15:58 54.48189 8.55261 6348 ft 159 kts 331°
2026-04-22 15:58 54.49120 8.54238 6220 ft 159 kts 329°
2026-04-22 15:58 54.50055 8.53202 6091 ft 160 kts 329°
2026-04-22 15:58 54.50980 8.52181 5964 ft 160 kts 329°
2026-04-22 15:59 54.51915 8.51145 5837 ft 160 kts 329°
2026-04-22 15:59 54.52846 8.50106 5713 ft 160 kts 329°
2026-04-22 15:59 54.53780 8.49062 5579 ft 160 kts 329°
2026-04-22 15:59 54.54717 8.48019 5465 ft 161 kts 329°
2026-04-22 16:00 54.55658 8.46974 5343 ft 160 kts 329°
2026-04-22 16:00 54.56598 8.45936 5214 ft 161 kts 329°
2026-04-22 16:00 54.57539 8.44903 5086 ft 160 kts 329°
2026-04-22 16:00 54.58477 8.43880 4955 ft 159 kts 329°
2026-04-22 16:01 54.59412 8.42866 4821 ft 158 kts 331°
2026-04-22 16:01 54.60343 8.41858 4700 ft 157 kts 329°
2026-04-22 16:01 54.61258 8.40872 4563 ft 152 kts 329°
2026-04-22 16:01 54.62149 8.39921 4372 ft 150 kts 329°
2026-04-22 16:02 54.63037 8.38974 4172 ft 149 kts 329°
2026-04-22 16:02 54.63933 8.38083 3968 ft 148 kts 332°
2026-04-22 16:02 54.64840 8.37242 3764 ft 148 kts 332°
2026-04-22 16:02 54.65746 8.36418 3567 ft 147 kts 332°
2026-04-22 16:03 54.66655 8.35599 3357 ft 147 kts 333°
2026-04-22 16:03 54.67566 8.34791 3155 ft 147 kts 332°
2026-04-22 16:03 54.68478 8.33992 2950 ft 147 kts 332°
2026-04-22 16:03 54.69380 8.33209 2755 ft 147 kts 332°
2026-04-22 16:04 54.70291 8.32426 2556 ft 143 kts 333°
2026-04-22 16:04 54.71165 8.31693 2342 ft 137 kts 337°
2026-04-22 16:04 54.72080 8.31345 2162 ft 133 kts 353°
2026-04-22 16:04 54.72992 8.31326 1990 ft 129 kts 356°
2026-04-22 16:05 54.73587 8.31331 1921 ft 124 kts 356°
2026-04-22 16:05 54.74679 8.31408 1863 ft 119 kts 359°
2026-04-22 16:05 54.75511 8.31496 1857 ft 119 kts 360°
2026-04-22 16:05 54.76335 8.31649 1804 ft 123 kts
2026-04-22 16:06 54.77190 8.31835 1723 ft 125 kts
2026-04-22 16:06 54.78070 8.32059 1574 ft 128 kts
2026-04-22 16:06 54.78943 8.32232 1488 ft 126 kts
2026-04-22 16:06 54.79805 8.32345 1432 ft 121 kts 357°
2026-04-22 16:07 54.80639 8.32403 1370 ft 119 kts 356°
2026-04-22 16:07 54.81452 8.32437 1324 ft 118 kts 356°
2026-04-22 16:07 54.82278 8.32436 1218 ft 120 kts 354°
2026-04-22 16:07 54.83136 8.32375 1076 ft 120 kts 354°
2026-04-22 16:08 54.83907 8.32329 1041 ft 106 kts 354°
2026-04-22 16:08 54.84584 8.32581 1039 ft 104 kts 22°
2026-04-22 16:08 54.85097 8.33467 1046 ft 103 kts 43°
2026-04-22 16:08 54.85535 8.34473 941 ft 103 kts 45°
2026-04-22 16:09 54.85961 8.35480 777 ft 102 kts 45°
2026-04-22 16:09 54.86371 8.36480 626 ft 100 kts 45°
2026-04-22 16:09 54.86760 8.37443 531 ft 94 kts 44°
2026-04-22 16:09 54.87134 8.38350 469 ft 87 kts 40°
2026-04-22 16:10 54.87583 8.38708 489 ft 64 kts 338°
2026-04-22 16:10 54.87952 8.38239 426 ft 70 kts 321°
2026-04-22 16:10 54.88202 8.37907 428 ft 67 kts 324°
2026-04-22 16:10 54.88702 8.37309 418 ft 64 kts 324°
2026-04-22 16:11 54.89056 8.36842 383 ft 67 kts 323°
2026-04-22 16:11 54.89440 8.36375 283 ft 68 kts 324°
2026-04-22 16:11 54.89793 8.35941 191 ft 58 kts 324°
2026-04-22 16:11 54.90123 8.35548 116 ft 59 kts 323°
2026-04-22 16:12 54.90340 8.35266 91 ft 58 kts 323°
2026-04-22 16:12 54.90745 8.34764 31 ft 42 kts 324°
2026-04-22 16:12 54.90929 8.34541 34 ft 25 kts 324°
2026-04-22 16:12 54.91066 8.34368 37 ft 24 kts 324°
2026-04-22 16:13 54.91214 8.34184 35 ft 26 kts 324°
2026-04-22 16:13 54.91311 8.34051 32 ft 12 kts 271°
2026-04-22 16:13 54.91288 8.33941 31 ft 18 kts 242°
2026-04-22 16:13 54.91249 8.33645 29 ft 17 kts 211°
2026-04-22 16:14 54.91176 8.33557 22 ft 22 kts 230°
2026-04-22 16:14 54.91074 8.33320 20 ft 24 kts 241°
2026-04-22 16:14 54.91022 8.33124 20 ft 19 kts 253°
2026-04-22 16:14 54.91056 8.32915 24 ft 20 kts 310°
2026-04-22 16:15 54.91129 8.32772 19 ft 19 kts 311°
2026-04-22 16:15 54.91210 8.32611 19 ft 16 kts 320°
2026-04-22 16:15 54.91252 8.32542 19 ft 7 kts 249°
2026-04-22 16:15 54.91249 8.32519 19 ft 0 kts 258°